This is the latest recevied weather packets stored in our database for station/object OM5AST-13. If no packets are shown the sender has not sent any weather packets the latest 10 day(s).
| Time | Temp. | Humidity | Pressure | Rain* | Wind** | Luminosity | Snow |
|---|---|---|---|---|---|---|---|
| 1787858635 | 26.11° C | 51% | - | 0 mm | - | 0 W/m² | - |
| 1787857435 | 26.67° C | 50% | - | 0 mm | - | 0 W/m² | - |
| 1787856235 | 27.22° C | 48% | - | 0 mm | - | 0 W/m² | - |
| 1787855035 | 27.78° C | 46% | - | 0 mm | - | 0 W/m² | - |
| 1787853835 | 28.33° C | 44% | - | 0 mm | - | 0 W/m² | - |
| 1787852635 | 28.89° C | 42% | - | 0 mm | - | 0 W/m² | - |
| 1787851435 | 30.56° C | 40% | - | 0 mm | - | 0 W/m² | - |
| 1787850235 | 31.67° C | 37% | - | 0 mm | - | 0 W/m² | - |
| 1787849035 | 33.33° C | 35% | - | 0 mm | - | 0 W/m² | - |
| 1787847835 | 34.44° C | 33% | - | 0 mm | - | 0 W/m² | - |
| 1787846635 | 35.56° C | 32% | - | 0 mm | - | 0 W/m² | - |
| 1787845435 | 36.67° C | 29% | - | 0 mm | - | 0 W/m² | - |
| 1787844235 | 35.56° C | 31% | - | 0 mm | - | 0 W/m² | - |
| 1787843035 | 36.11° C | 31% | - | 0 mm | - | 0 W/m² | - |
| 1787841835 | 34.44° C | 33% | - | 0 mm | - | 0 W/m² | - |
| 1787840635 | 35.56° C | 32% | - | 0 mm | - | 0 W/m² | - |
| 1787839435 | 33.89° C | 35% | - | 0 mm | - | 0 W/m² | - |
| 1787838235 | 33.89° C | 35% | - | 0 mm | - | 0 W/m² | - |
| 1787837035 | 33.89° C | 34% | - | 0 mm | - | 0 W/m² | - |
| 1787835835 | 32.22° C | 37% | - | 0 mm | - | 0 W/m² | - |
| 1787834635 | 31.67° C | 38% | - | 0 mm | - | 0 W/m² | - |
| 1787833435 | 31.11° C | 40% | - | 0 mm | - | 0 W/m² | - |
| 1787832235 | 28.89° C | 43% | - | 0 mm | - | 0 W/m² | - |
| 1787831035 | 28.89° C | 44% | - | 0 mm | - | 0 W/m² | - |
| 1787829835 | 28.33° C | 46% | - | 0 mm | - | 0 W/m² | - |
* Rain latest hour (hover to see other rain measurements)
** Current wind speed in m/s (hover to see current wind gust speed)